Location: Borovka
(49.7741°N, 14.5280°E)
Time: 07:15:55
(UTC+00:00)

Cosmos 1869 - Pass Details

Date: 17 November 2025
Orbit: 453 x 480 km, 82.5° (Epoch: 12 December)

Event Time Altitude Azimuth Distance (km) Brightness Sun altitude
Rises 17:11:44 0° 204° (SSW) 2,489 7.1 -18.4°
Reaches altitude 10° 17:13:53 10° 211° (SSW) 1,613 6.2 -18.8°
Maximum altitude 17:17:15 42° 284° (WNW) 670 4.2 -19.3°
Drops below altitude 10° 17:20:37 10° 357° (N) 1,613 5.7 -19.9°
Enters shadow 17:21:12 - 0° (N) 1,850 5.9 -20.0°
